Location: Anmer
(52.8333°N, 0.5833°E)
Time: 20:22:05
(UTC+00:00)

SPOT 3 Rocket - Pass Details

Date: 15 May 2026
Orbit: 774 x 790 km, 98.5° (Epoch: 6 June)

Event Time Altitude Azimuth Distance (km) Brightness Sun altitude
Exits shadow 21:09:24 10° 164° (SSE) 2,330 5.4 -9.8°
Reaches altitude 10° 21:09:25 10° 164° (SSE) 2,325 5.4 -9.8°
Maximum altitude 21:14:33 86° 253° (WSW) 786 3.6 -10.3°
Drops below altitude 10° 21:19:44 10° 344° (NNW) 2,336 7.3 -10.8°
Sets 21:22:03 0° 345° (NNW) 3,267 8.2 -11.0°
